DW7304 Weather Reports


time (UTC)temp
C
wind
direction
speed
KPH
gust
KPH
rain 1hr
cm
rain 24hr
cm
rain mn
cm
humidity
%
barometer
mb
20260507212703 8 107 3.2 3.2 0.00 0.00 0.00 73 1011.5
20260507211803 9 96 1.6 3.2 0.00 0.00 0.00 72 1011.5
20260507210903 9 107 3.2 3.2 0.00 0.00 0.00 71 1011.5
20260507210004 8 96 3.2 3.2 0.00 0.00 0.00 70 1011.4
20260507205403 8 82 3.2 3.2 0.00 0.00 0.00 70 1011.5
20260507204503 9 71 3.2 3.2 0.00 0.00 0.00 70 1011.3
20260507203603 9 72 1.6 3.2 0.00 0.00 0.00 69 1011.3
20260507202703 9 75 3.2 3.2 0.00 0.00 0.00 69 1011.3
20260507201803 9 102 1.6 3.2 0.00 0.00 0.00 69 1011.3
20260507200903 9 105 1.6 3.2 0.00 0.00 0.00 70 1011.1
20260507200216 9 105 1.6 3.2 0.00 0.00 0.00 70 1011.1
20260507195618 9 97 3.2 3.2 0.00 0.00 0.00 70 1011.1
20260507194503 9 96 3.2 3.2 0.00 0.00 0.00 70 1011.0
20260507193603 9 91 1.6 3.2 0.00 0.00 0.00 71 1010.8
20260507192918 9 80 1.6 3.2 0.00 0.00 0.00 71 1010.5
20260507192017 9 62 1.6 3.2 0.00 0.00 0.00 71 1010.4
20260507190903 8 58 3.2 4.8 0.00 0.00 0.00 72 1010.1
20260507190004 9 82 3.2 4.8 0.00 0.00 0.00 72 1010.1
20260507185403 9 75 3.2 4.8 0.00 0.00 0.00 73 1010.0
20260507184503 9 47 4.8 4.8 0.00 0.00 0.00 75 1010.0
20260507183603 9 53 4.8 4.8 0.00 0.05 0.00 75 1009.8
20260507182703 10 41 3.2 4.8 0.00 0.05 0.00 74 1009.7
20260507181803 10 68 3.2 4.8 0.00 0.25 0.00 75 1009.8
20260507181118 11 70 0.0 3.2 0.00 0.30 0.00 74 1009.8
20260507180004 11 0 0.0 0.0 0.00 0.30 0.00 73 1009.7
20260507175403 11 0 0.0 0.0 0.00 0.30 0.00 72 1009.7
20260507174503 12 0 0.0 0.0 0.00 0.30 0.00 71 1009.6
20260507173603 12 0 0.0 0.0 0.00 0.30 0.00 71 1009.6
20260507172703 12 261 0.0 3.2 0.00 0.30 0.00 71 1009.6
20260507171803 12 274 1.6 4.8 0.00 0.43 0.00 70 1009.7
20260507170903 12 283 1.6 3.2 0.00 0.56 0.00 69 1009.7
20260507170003 12 295 1.6 8.0 0.00 0.61 0.00 69 1009.8
20260507165617 12 286 1.6 8.0 0.00 0.61 0.00 69 1010.0
20260507164718 12 276 1.6 6.4 0.00 0.61 0.00 70 1009.9
20260507163603 12 271 1.6 6.4 0.00 0.61 0.00 71 1009.9
20260507162703 12 243 6.4 12.9 0.00 0.61 0.00 70 1010.0
20260507161803 12 233 6.4 14.5 0.00 0.61 0.00 70 1010.0
20260507160903 12 233 8.0 16.1 0.00 0.61 0.00 71 1009.9
20260507160003 13 222 8.0 17.7 0.00 0.61 0.00 70 1009.8
20260507155403 13 229 8.0 19.3 0.00 0.61 0.00 69 1009.7
20260507154503 13 225 12.9 22.5 0.00 0.61 0.00 63 1009.6
20260507153603 13 227 12.9 19.3 0.00 0.61 0.00 61 1009.6
20260507152916 13 220 12.9 24.1 0.00 0.61 0.00 62 1009.5
20260507151803 14 210 12.9 20.9 0.00 0.61 0.00 60 1009.5
20260507150903 15 215 14.5 24.1 0.00 0.61 0.00 58 1009.0
20260507150003 15 244 12.9 24.1 0.00 0.61 0.00 57 1008.7
20260507145403 16 246 14.5 29.0 0.00 0.61 0.00 55 1008.6
20260507144503 16 224 16.1 29.0 0.00 0.66 0.00 54 1008.5
20260507143817 16 225 12.9 29.0 0.00 0.66 0.00 55 1008.4
20260507142703 16 218 11.3 25.7 0.00 0.66 0.00 56 1008.4
20260507142017 16 207 11.3 25.7 0.00 0.66 0.00 56 1008.4
20260507141117 16 208 9.7 24.1 0.00 0.71 0.00 55 1008.5
20260507140003 16 208 12.9 27.4 0.00 0.84 0.00 55 1008.5
20260507135403 16 201 9.7 19.3 0.00 0.84 0.00 57 1008.5
20260507134503 16 212 12.9 24.1 0.00 0.84 0.00 56 1008.7
20260507133603 16 223 9.7 22.5 0.00 0.84 0.00 57 1008.6
20260507132918 16 210 9.7 17.7 0.00 0.84 0.00 56 1008.5
20260507131803 16 231 16.1 29.0 0.00 0.84 0.00 56 1008.9
20260507131116 16 208 11.3 29.0 0.00 0.84 0.00 57 1008.8
20260507130003 16 225 9.7 22.5 0.00 0.84 0.00 55 1008.8
20260507125403 16 201 9.7 24.1 0.00 0.84 0.00 57 1008.9
20260507124716 16 223 11.3 24.1 0.00 0.89 0.00 56 1008.9
20260507123604 16 233 14.5 25.7 0.00 0.94 0.00 59 1009.0
20260507122705 16 239 9.7 24.1 0.00 0.99 0.00 60 1008.7
20260507122016 16 219 9.7 24.1 0.00 0.99 0.00 60 1008.8
20260507120903 16 209 11.3 19.3 0.00 0.99 0.00 59 1008.9
20260507120004 16 223 9.7 24.1 0.00 1.04 0.00 62 1008.8
20260507115403 16 229 11.3 24.1 0.00 1.09 0.00 60 1008.8
20260507114503 16 210 9.7 19.3 0.00 1.09 0.00 63 1008.8
20260507113603 16 214 11.3 24.1 0.00 1.09 0.00 67 1008.9
20260507112703 15 186 11.3 22.5 0.00 1.14 0.00 67 1009.0
20260507111803 16 200 9.7 19.3 0.00 1.14 0.00 67 1009.1
20260507110903 15 220 12.9 24.1 0.00 1.14 0.00 65 1009.0
20260507110003 16 234 11.3 22.5 0.00 1.14 0.00 67 1009.1
20260507105403 15 218 11.3 20.9 0.00 1.14 0.00 67 1009.1
20260507104718 15 203 9.7 22.5 0.00 1.14 0.00 70 1009.0
20260507103603 15 193 11.3 20.9 0.00 1.14 0.00 65 1009.1
20260507102703 15 209 12.9 20.9 0.00 1.14 0.00 71 1009.2
20260507101803 15 211 11.3 20.9 0.00 1.19 0.00 71 1009.2
20260507101117 15 214 11.3 20.9 0.00 1.19 0.00 71 1009.1
20260507100003 14 206 12.9 20.9 0.00 1.30 0.00 73 1009.1
20260507095403 14 211 12.9 24.1 0.00 1.35 0.00 71 1009.1
20260507094503 14 214 12.9 25.7 0.00 1.35 0.00 76 1009.1
20260507093604 14 215 11.3 27.4 0.00 1.35 0.00 74 1009.1
20260507092703 13 206 12.9 22.5 0.00 1.35 0.00 76 1009.1
20260507091803 14 203 12.9 25.7 0.00 1.35 0.00 76 1009.1
20260507090903 13 215 8.0 16.1 0.00 1.35 0.00 78 1009.1
20260507090004 13 228 9.7 17.7 0.00 1.35 0.00 76 1009.1
20260507085403 13 222 11.3 19.3 0.00 1.35 0.00 77 1009.0
20260507084503 13 208 11.3 17.7 0.00 1.40 0.00 74 1008.9
20260507083603 14 217 9.7 17.7 0.00 1.45 0.00 77 1009.0
20260507082703 13 217 11.3 24.1 0.00 1.50 0.00 75 1008.8
20260507081803 13 222 11.3 17.7 0.00 1.55 0.00 74 1008.7
20260507080903 13 227 9.7 17.7 0.00 1.60 0.00 77 1008.7
20260507080218 13 209 8.0 17.7 0.00 1.65 0.00 75 1008.7
20260507075617 13 212 9.7 17.7 0.00 1.70 0.00 75 1008.6
20260507074503 13 214 11.3 22.5 0.00 1.75 0.00 77 1008.5
20260507073818 13 236 8.0 20.9 0.00 1.75 0.00 80 1008.6
20260507072703 13 246 4.8 9.7 0.00 1.80 0.00 83 1008.4
20260507071803 13 243 4.8 8.0 0.00 1.88 0.00 82 1008.5
20260507070903 12 242 6.4 14.5 0.00 1.88 0.00 83 1008.4
20260507070004 12 217 11.3 17.7 0.00 2.06 0.00 81 1008.3
20260507065403 12 203 9.7 17.7 0.00 2.24 0.00 81 1008.3
20260507064503 12 148 8.0 19.3 0.00 2.34 0.00 82 1008.1
20260507063818 12 153 6.4 19.3 0.00 2.44 0.00 83 1008.1
20260507062703 12 155 8.0 17.7 0.00 2.59 0.00 82 1008.1
20260507061803 12 157 6.4 11.3 0.00 2.74 0.00 84 1008.0
20260507060903 11 146 6.4 12.9 0.00 2.95 0.00 85 1008.0
20260507060004 11 149 8.0 12.9 0.00 3.00 0.00 85 1008.1
20260507055403 11 151 4.8 11.3 0.00 3.00 0.00 85 1008.0
20260507054503 11 182 3.2 11.3 0.00 3.00 0.00 86 1008.0
20260507053603 11 186 3.2 11.3 0.00 3.00 0.00 87 1008.0
20260507052703 10 123 3.2 6.4 0.00 3.00 0.00 88 1007.8
20260507051803 10 97 3.2 8.0 0.00 3.00 0.00 88 1007.5
20260507050903 10 145 6.4 14.5 0.00 3.00 0.00 88 1007.5
20260507050217 10 143 6.4 14.5 0.00 3.00 0.00 88 1007.4
20260507045618 10 133 4.8 9.7 0.00 3.00 0.00 88 1007.3
20260507044503 10 170 1.6 6.4 0.00 3.00 0.00 88 1007.5
20260507043603 10 154 1.6 6.4 0.00 3.00 0.00 88 1007.3
20260507042916 10 144 3.2 9.7 0.00 3.00 0.00 88 1007.4
20260507041803 10 135 8.0 12.9 0.00 3.00 0.00 88 1007.1
20260507040903 10 139 4.8 9.7 0.00 3.00 0.00 87 1007.3
20260507040003 10 136 4.8 12.9 0.00 3.00 0.00 87 1007.3
20260507035403 10 140 4.8 9.7 0.00 3.00 0.00 87 1007.2
20260507034503 10 149 4.8 11.3 0.00 3.00 0.00 87 1007.3
20260507033816 10 157 4.8 14.5 0.00 3.00 0.00 87 1007.4
20260507032703 10 147 3.2 9.7 0.00 3.00 0.00 86 1007.3
20260507032017 10 168 4.8 12.9 0.00 3.00 0.00 86 1007.2
20260507031116 10 167 8.0 14.5 0.00 3.00 0.00 87 1007.3
20260507030003 10 176 8.0 19.3 0.00 3.00 0.00 86 1007.1
20260507025403 10 168 8.0 16.1 0.00 3.00 0.00 87 1007.2
20260507024503 10 163 8.0 16.1 0.00 3.00 0.00 86 1007.1
20260507023603 10 183 9.7 19.3 0.00 3.00 0.00 86 1007.1
20260507022703 10 176 9.7 22.5 0.00 3.00 0.00 86 1007.2
20260507021803 11 174 9.7 19.3 0.00 3.05 0.00 86 1007.1
20260507020903 11 193 9.7 20.9 0.00 3.05 0.00 87 1007.1
20260507020217 11 213 8.0 20.9 0.00 3.05 0.00 87 1007.1
20260507015403 11 194 8.0 19.3 0.00 3.05 0.00 87 1007.1
20260507014503 11 191 8.0 27.4 0.00 3.05 0.00 87 1007.1
20260507013603 11 179 9.7 19.3 0.00 3.05 0.00 87 1007.1
20260507012703 11 183 9.7 20.9 0.00 3.05 0.00 87 1007.1
20260507011803 11 184 12.9 27.4 0.00 3.05 0.00 87 1007.1
20260507010903 11 173 12.9 25.7 0.00 3.10 0.00 87 1007.0
20260507010003 11 182 11.3 25.7 0.00 3.15 0.00 87 1006.8
20260507005403 11 187 12.9 24.1 0.00 3.25 0.00 87 1007.0
20260507004503 11 189 12.9 29.0 0.00 3.53 0.00 87 1006.9
20260507003603 11 184 12.9 29.0 0.00 3.78 0.00 87 1007.0
20260507002917 11 182 12.9 24.1 0.00 3.84 0.00 87 1007.2
20260507002018 11 167 12.9 25.7 0.00 3.84 0.00 87 1007.1
20260507000903 11 187 12.9 29.0 0.00 3.89 0.00 87 1007.2
20260507000004 11 176 12.9 22.5 0.00 3.89 0.00 87 1007.2
20260506235404 11 182 14.5 29.0 0.00 3.94 0.00 88 1007.3
20260506234503 11 178 14.5 30.6 0.00 4.19 0.00 88 1007.2
20260506233603 11 176 16.1 27.4 0.00 4.29 0.00 88 1007.3
20260506232703 11 178 14.5 29.0 0.00 4.34 0.00 89 1007.4
20260506231803 11 188 11.3 25.7 0.00 4.34 0.00 89 1007.4
20260506230903 11 191 17.7 32.2 0.00 4.34 0.00 89 1007.4
20260506230003 11 186 16.1 30.6 0.00 4.34 0.00 89 1007.3
20260506225403 11 175 16.1 30.6 0.00 4.34 0.00 89 1007.3
20260506224503 11 198 14.5 30.6 0.00 4.34 0.00 89 1007.3
20260506223603 11 183 17.7 30.6 0.00 4.34 0.00 89 1007.4
20260506222703 11 199 17.7 30.6 0.00 4.34 0.00 89 1007.1
20260506221803 11 192 16.1 32.2 0.00 4.34 0.00 90 1007.3
20260506220903 11 189 17.7 29.0 0.00 4.34 0.00 90 1007.2
20260506220003 11 204 16.1 29.0 0.00 4.34 0.00 90 1007.3
20260506215403 11 212 16.1 29.0 0.00 4.34 4.34 90 1007.2
20260506214503 10 212 12.9 24.1 0.00 4.34 4.34 90 1007.3
20260506213816 10 208 12.9 22.5 0.00 4.34 4.34 90 1007.3